Location: Bucquoy
(50.1391°N, 2.7097°E)
Time: 12:52:10
(UTC+00:00)

YAOGAN 11 - Pass Details

Date: 06 May 2021
Orbit: 614 x 667 km, 98.3° (Epoch: 22 June)

Event Time Altitude Azimuth Distance (km) Brightness Sun altitude
Exits shadow 00:33:01 64° 143° (SE) 692 4.0 -22.5°
Maximum altitude 00:33:38 80° 74° (ENE) 638 4.0 -22.5°
Drops below altitude 10° 00:37:58 10° 347° (NNW) 1,994 7.5 -22.3°
Sets 00:40:09 0° 347° (NNW) 2,901 8.6 -22.2°
